Content
SEND FEEDBACK

Daily
Averages
Monthly
Summary
United States of America

BATTENVILLE, NEW YORK


Home > North America > United States > New York
Elevation: 122 meters     Latitude: 43 07N     Longitude: 073 25W

WEATHER
 
SELECT A DAY
Number of Records: 184,123;   Date Range: 12/9/98 - 12/24/14
 
SHARE

PRINT THIS DATA

[ ← Previous Day ]
WEATHER ALMANAC - 13 JULY, 2014
[ Next Day → ]
[ °F ]   °C
Weather ElementAverageHighLow
Temperature23.2 °C25.6 °C (11:54 am)18.3 °C (7:54 am)
Dewpoint18.5 °C20.6 °C (12:54 pm)15.6 °C (10:54 am)
Humidity75.1 %85 % (3:54 pm)69 % (6:54 pm)
Barometer1014.2 hPa1018.3 hPa (6:09 am)1010.2 hPa (6:03 am)
Wind Speed11.3 km/h22.2 km/h (3:54 am)
Wind Gust42.6 km/h (12:54 am)
Weather ElementAverage
Visibility15 km
Wind DirectionESE (122 °)

Weather ElementTotal
Precipitation0.25 mm
Cooling Degree Days3.6 (Base 18.3)
Growing Degree Days11.9 (Base 10)
Averaged from 25 records on 13 July, 2014
WEATHER CONDITIONS BREAKOUT
WIND DIRECTION BREAKOUT
WEATHER BY HOUR - 13 JULY, 2014
[ °F ]   °C
Local TimeTemperatureDewpointHumidityBarometerVisibilityWind DirectionWind SpeedGust SpeedPrecipitationEventsConditions
12:54 AM21.7 °C16.1 °C70 %1018.3 hPa16.1 kmVariable5.6 km/hPartly Cloudy
1:54 AM21.1 °C15.6 °C71 %1017.9 hPa16.1 kmCalmMostly Cloudy
2:54 AM20.6 °C15.6 °C73 %1017.6 hPa16.1 kmCalmMostly Cloudy
3:54 AM20 °C15.6 °C76 %1017.3 hPa16.1 kmCalmClear
4:54 AM20 °C15.6 °C76 %1017.3 hPa9.7 kmVariable5.6 km/hHaze
5:54 AM18.3 °C15.6 °C84 %1017.3 hPa16.1 kmCalmScattered Clouds
6:54 AM20 °C16.7 °C81 %1016.3 hPa16.1 kmVariable5.6 km/hScattered Clouds
7:54 AM23.3 °C17.8 °C71 %1015.9 hPa16.1 kmVariable5.6 km/hClear
8:54 AM22.8 °C17.8 °C73 %1015.6 hPa16.1 kmSW (230°)13 km/hMostly Cloudy
9:54 AM25 °C18.9 °C69 %1014.9 hPa16.1 kmSouth (180°)14.8 km/h29.6 km/hClear
10:54 AM25.6 °C20 °C71 %1014.6 hPa16.1 kmSouth (190°)11.1 km/h29.6 km/hPartly Cloudy
11:54 AM25 °C19.4 °C71 %1014.6 hPa16.1 kmSouth (190°)18.5 km/h27.8 km/hScattered Clouds
12:07 PM25.6 °C20 °C71 %1014.9 hPa16.1 kmVariable7.4 km/hMostly Cloudy
12:38 PM24.4 °C19.4 °C74 %1014.6 hPa16.1 kmSouth (180°)14.8 km/h25.9 km/hOvercast
12:54 PM25.6 °C20 °C71 %1013.9 hPa16.1 kmSouth (180°)22.2 km/h33.3 km/hMostly Cloudy
1:54 PM23.9 °C19.4 °C76 %1013.5 hPa14.5 kmSouth (180°)14.8 km/h29.6 km/hOvercast
2:54 PM24.4 °C20 °C76 %1012.9 hPa16.1 kmSouth (170°)16.7 km/h29.6 km/hMostly Cloudy
3:54 PM23.9 °C19.4 °C76 %1012.5 hPa12.9 kmSouth (190°)13 km/h29.6 km/hOvercast
4:54 PM25 °C20 °C74 %1011.9 hPa12.9 kmSouth (180°)18.5 km/hMostly Cloudy
5:54 PM23.3 °C20.6 °C85 %1011.2 hPa6.4 kmSouth (170°)20.4 km/h38.9 km/h0 mmRainLight Rain
7:54 PM23.9 °C20.6 °C82 %1010.2 hPa11.3 kmSouth (180°)14.8 km/h31.5 km/h0.25 mmOvercast
8:54 PM23.9 °C19.4 °C76 %1010.2 hPa16.1 kmSouth (190°)13 km/h0 mmOvercast
9:54 PM23.9 °C19.4 °C76 %1010.8 hPa16.1 kmSW (220°)13 km/hMostly Cloudy
10:54 PM24.4 °C20 °C76 %1010.8 hPa16.1 kmSSW (210°)20.4 km/h42.6 km/hOvercast
11:54 PM23.9 °C20 °C79 %1011.2 hPa16.1 kmSSW (210°)11.1 km/hOvercast
Hourly data recorded from KDDH, located 0 kilometers away from Battenville, New York







STORIES FROM OUR PARTNERS